This demonstration page uses our WeatherBlox Daily Observations layout. Learn more.

Left ArrowRight Arrow

41.86663, -103.66717

Hourly Observations for August 30, 2018

Temp ( °F °C ) Dew Point ( °F °C ) Humidity (%) Winds ( mph kmh ) Pressure ( in mb ) Visibility ( mi km ) Precip ( " mm )
12:53 am 00:53 Clear 70 21.1 58 14.4 66 66 SSE 12 19 29.86 1011 10 16 0.00 0.00
1:53 am 01:53 Clear 68 20 59 15 73 73 SE 9 15 29.84 1011 10 16 0.00 0.00
2:53 am 02:53 Clear 60 15.6 59 15 96 96 E 10 17 29.85 1011 10 16 0.00 0.00
3:53 am 03:53 Clear 59 15 58 14.4 96 96 E 10 17 29.85 1011 10 16 0.00 0.00
4:53 am 04:53 Clear 57 13.9 57 13.9 100 100 ESE 8 13 29.86 1011 10 16 0.00 0.00
5:53 am 05:53 Clear 55 12.8 55 12.8 100 100 undefined N/A 29.87 1011 9 14 0.00 0.00
6:53 am 06:53 Sunny 55 12.8 55 12.8 100 100 ESE 6 9 29.88 1012 8 13 0.00 0.00
7:53 am 07:53 Sunny 59 15 58 14.4 96 96 E 3 6 29.88 1012 10 16 0.00 0.00
8:53 am 08:53 Sunny 66 18.9 60 15.6 81 81 NNW 5 7 29.88 1012 10 16 0.00 0.00
9:53 am 09:53 Sunny 74 23.3 57 13.9 56 56 NW 8 13 29.88 1012 10 16 0.00 0.00
10:53 am 10:53 Sunny 82 27.8 51 10.6 34 34 WNW 7 11 29.85 1011 10 16 0.00 0.00
11:53 am 11:53 Sunny 87 30.6 50 10 28 28 W 10 17 29.83 1010 10 16 0.00 0.00
12:53 pm 12:53 Sunny 93 33.9 35 1.7 13 13 WNW 10 17 29.78 1009 10 16 0.00 0.00
1:53 pm 13:53 Sunny 95 35 37 2.8 13 13 NNW 12 19 29.77 1008 10 16 0.00 0.00
2:53 pm 14:53 Sunny 94 34.4 37 2.8 14 14 NNW 7 11 29.77 1008 10 16 0.00 0.00
3:53 pm 15:53 Sunny 94 34.4 36 2.2 13 13 VRB 5 7 29.76 1008 10 16 0.00 0.00
4:53 pm 16:53 Sunny 92 33.3 33 0.6 12 12 SSE 6 9 29.75 1008 10 16 0.00 0.00
5:53 pm 17:53 Sunny 87 30.6 44 6.7 22 22 SSE 7 11 29.76 1008 10 16 0.00 0.00
6:53 pm 18:53 Sunny 85 29.4 45 7.2 25 25 SSE 3 6 29.77 1008 10 16 0.00 0.00
7:53 pm 19:53 Clear 77 25 53 11.7 43 43 SSE 6 9 29.79 1009 10 16 0.00 0.00
8:53 pm 20:53 Clear 83 28.3 38 3.3 20 20 SW 10 17 29.77 1008 10 16 0.00 0.00
9:53 pm 21:53 Clear 80 26.7 41 5 25 25 SSE 5 7 29.75 1007 10 16 0.00 0.00
10:53 pm 22:53 Mostly Clear 86 30 37 2.8 18 18 SSW 15 24 29.72 1006 10 16 0.00 0.00
11:43 pm 23:43 Clear 89 31.7 34 1.1 14 14 SW 26 43 29.59 1002 10 16 0.00 0.00
11:53 pm 23:53 Clear 88 31.1 34 1.1 15 15 SW 35 56 29.70 1006 8 13 0.00 0.00

Powered by AerisWeather